TAR708 DTTA-DAOO

Flight info

Callsign TAR708
Flight time 1h 37m
Altitude 36000
Route KEMIR2A KEMIR UM978 MORJA UA411 BNA UA31 CHE UA411 MOS
Aircraft A320/M-SDE3FGHIRWY/LB1

Departure

Time 2026-05-07 21:20
Airport Tunis Carthage International Airport (DTTA)

Arrival

Time 2026-05-07 22:58
Airport Oran Es-Sénia (Ahmed Ben Bella) International Airport (DAOO)
Time Latitude Longitude Altitude Speed Heading
2026-05-07 21:11 36.84325 10.21855 29 ft 0 kts 282°
2026-05-07 21:15 36.84325 10.21856 29 ft 1 kts 282°
2026-05-07 21:15 36.84320 10.21886 30 ft 4 kts 276°
2026-05-07 21:16 36.84320 10.21919 30 ft 4 kts 262°
2026-05-07 21:16 36.84328 10.21948 30 ft 4 kts 220°
2026-05-07 21:16 36.84339 10.21956 30 ft 1 kts 192°
2026-05-07 21:16 36.84341 10.21956 30 ft 0 kts 192°
2026-05-07 21:17 36.84322 10.21951 30 ft 10 kts 192°
2026-05-07 21:18 36.84229 10.21927 30 ft 15 kts 192°
2026-05-07 21:18 36.84125 10.21898 30 ft 16 kts 193°
2026-05-07 21:18 36.84010 10.21866 30 ft 18 kts 194°
2026-05-07 21:18 36.83900 10.21897 30 ft 17 kts 121°
2026-05-07 21:19 36.83873 10.22052 30 ft 19 kts 100°
2026-05-07 21:19 36.83875 10.22219 31 ft 20 kts 73°
2026-05-07 21:19 36.83941 10.22368 31 ft 17 kts 52°
2026-05-07 21:19 36.84060 10.22417 31 ft 28 kts 14°
2026-05-07 21:20 36.84476 10.22536 29 ft 96 kts 13°
2026-05-07 21:20 36.85319 10.22773 34 ft 150 kts 13°
2026-05-07 21:20 36.86404 10.23061 434 ft 158 kts 12°
2026-05-07 21:20 36.87481 10.23338 1002 ft 158 kts 14°
2026-05-07 21:21 36.88563 10.23629 1498 ft 160 kts 15°
2026-05-07 21:21 36.89673 10.23934 1848 ft 172 kts 15°
2026-05-07 21:21 36.90918 10.24281 2015 ft 195 kts 15°
2026-05-07 21:21 36.92368 10.24687 2115 ft 226 kts 14°
2026-05-07 21:22 36.93973 10.25131 2469 ft 248 kts 13°
2026-05-07 21:22 36.95769 10.25166 2933 ft 268 kts 346°
2026-05-07 21:22 36.97421 10.24076 3733 ft 272 kts 315°
2026-05-07 21:22 36.98425 10.22107 4586 ft 271 kts 284°
2026-05-07 21:23 36.98546 10.19786 5466 ft 268 kts 261°
2026-05-07 21:23 36.98409 10.18260 6130 ft 266 kts 260°
2026-05-07 21:23 36.98195 10.15972 7064 ft 264 kts 260°
2026-05-07 21:23 36.97980 10.13691 7960 ft 264 kts 261°
2026-05-07 21:24 36.97765 10.11411 8864 ft 264 kts 261°
2026-05-07 21:24 36.97481 10.08386 10031 ft 265 kts 261°
2026-05-07 21:24 36.97334 10.06820 10366 ft 275 kts 261°
2026-05-07 21:24 36.97100 10.04344 10603 ft 297 kts 261°
2026-05-07 21:25 36.96860 10.01763 11124 ft 306 kts 261°
2026-05-07 21:25 36.96614 9.99098 11824 ft 310 kts 261°
2026-05-07 21:25 36.96365 9.96404 12561 ft 313 kts 261°
2026-05-07 21:25 36.96113 9.93687 13288 ft 316 kts 261°
2026-05-07 21:26 36.95859 9.90943 13973 ft 319 kts 261°
2026-05-07 21:26 36.95604 9.88179 14614 ft 321 kts 261°
2026-05-07 21:26 36.95347 9.85395 15256 ft 324 kts 261°
2026-05-07 21:26 36.95086 9.82592 15901 ft 326 kts 261°
2026-05-07 21:27 36.94818 9.79754 16488 ft 330 kts 260°
2026-05-07 21:27 36.94546 9.76894 17118 ft 332 kts 260°
2026-05-07 21:27 36.94273 9.74014 17744 ft 335 kts 260°
2026-05-07 21:27 36.93996 9.71112 18352 ft 337 kts 260°
2026-05-07 21:28 36.93717 9.68184 18878 ft 340 kts 260°
2026-05-07 21:28 36.93436 9.65244 19396 ft 343 kts 260°
2026-05-07 21:28 36.93150 9.62270 19928 ft 345 kts 261°
2026-05-07 21:28 36.92866 9.59282 20461 ft 348 kts 261°
2026-05-07 21:29 36.92580 9.56269 20983 ft 351 kts 261°
2026-05-07 21:29 36.92290 9.53226 21497 ft 353 kts 261°
2026-05-07 21:29 36.91996 9.50164 22025 ft 356 kts 261°
2026-05-07 21:29 36.91697 9.47080 22547 ft 359 kts 261°
2026-05-07 21:30 36.91394 9.43968 23044 ft 363 kts 261°
2026-05-07 21:30 36.91087 9.40825 23501 ft 366 kts 261°
2026-05-07 21:30 36.90777 9.37658 23899 ft 369 kts 261°
2026-05-07 21:30 36.90467 9.34501 24318 ft 371 kts 261°
2026-05-07 21:31 36.90153 9.31294 24733 ft 372 kts 261°
2026-05-07 21:31 36.89837 9.28085 25137 ft 374 kts 261°
2026-05-07 21:31 36.89518 9.24846 25533 ft 375 kts 261°
2026-05-07 21:31 36.89196 9.21600 25921 ft 377 kts 261°
2026-05-07 21:32 36.88872 9.18347 26304 ft 379 kts 261°
2026-05-07 21:32 36.88547 9.15080 26677 ft 380 kts 261°
2026-05-07 21:32 36.88219 9.11797 27042 ft 381 kts 261°
2026-05-07 21:32 36.87892 9.08499 27449 ft 382 kts 261°
2026-05-07 21:33 36.87561 9.05191 27738 ft 386 kts 261°
2026-05-07 21:33 36.87227 9.01858 28054 ft 388 kts 261°
2026-05-07 21:33 36.86887 8.98498 28389 ft 390 kts 261°
2026-05-07 21:33 36.86545 8.95127 28725 ft 392 kts 261°
2026-05-07 21:34 36.86203 8.91743 29064 ft 394 kts 261°
2026-05-07 21:34 36.85857 8.88340 29391 ft 395 kts 261°
2026-05-07 21:34 36.85510 8.84961 29706 ft 397 kts 261°
2026-05-07 21:34 36.85153 8.81491 30004 ft 399 kts 261°
2026-05-07 21:35 36.84798 8.78052 30258 ft 400 kts 260°
2026-05-07 21:35 36.84445 8.74650 30530 ft 401 kts 260°
2026-05-07 21:35 36.84085 8.71189 30799 ft 402 kts 260°
2026-05-07 21:35 36.83724 8.67716 30948 ft 405 kts 260°
2026-05-07 21:36 36.83451 8.64206 31144 ft 409 kts 266°
2026-05-07 21:36 36.83456 8.60641 31448 ft 409 kts 266°
2026-05-07 21:36 36.83466 8.57093 31796 ft 407 kts 266°
2026-05-07 21:36 36.83471 8.53564 32162 ft 405 kts 266°
2026-05-07 21:37 36.83469 8.50053 32522 ft 403 kts 266°
2026-05-07 21:37 36.83465 8.46557 32872 ft 402 kts 266°
2026-05-07 21:37 36.83459 8.43077 33207 ft 400 kts 265°
2026-05-07 21:37 36.83451 8.39612 33569 ft 398 kts 265°
2026-05-07 21:38 36.83446 8.36162 33921 ft 396 kts 265°
2026-05-07 21:38 36.83442 8.32734 34219 ft 395 kts 266°
2026-05-07 21:38 36.83438 8.29304 34448 ft 395 kts 266°
2026-05-07 21:38 36.83433 8.25874 34708 ft 394 kts 266°
2026-05-07 21:39 36.83423 8.22459 34989 ft 392 kts 266°
2026-05-07 21:39 36.83412 8.19068 35273 ft 390 kts 266°
2026-05-07 21:39 36.83401 8.15732 35547 ft 388 kts 266°
2026-05-07 21:39 36.83389 8.12369 35800 ft 387 kts 265°
2026-05-07 21:40 36.83364 8.05709 35906 ft 380 kts 265°
2026-05-07 21:40 36.83341 7.99140 35901 ft 378 kts 265°
2026-05-07 21:41 36.83311 7.92562 35893 ft 378 kts 266°
2026-05-07 21:41 36.83275 7.86002 35893 ft 378 kts 266°
2026-05-07 21:42 36.83232 7.79444 35893 ft 378 kts 265°
2026-05-07 21:42 36.83163 7.72896 35893 ft 377 kts 265°
2026-05-07 21:43 36.83091 7.66364 35895 ft 377 kts 265°
2026-05-07 21:43 36.83015 7.59809 35905 ft 377 kts 265°
2026-05-07 21:44 36.82935 7.53274 35931 ft 377 kts 266°
2026-05-07 21:44 36.82853 7.46729 35956 ft 377 kts 266°
2026-05-07 21:45 36.82768 7.40188 35956 ft 377 kts 266°
2026-05-07 21:45 36.82679 7.33653 35954 ft 377 kts 266°
2026-05-07 21:46 36.82587 7.27112 35952 ft 376 kts 266°
2026-05-07 21:46 36.82490 7.20578 35950 ft 376 kts 266°
2026-05-07 21:47 36.82394 7.14052 35952 ft 376 kts 266°
2026-05-07 21:47 36.82296 7.07525 35951 ft 376 kts 266°
2026-05-07 21:48 36.82192 7.01002 35953 ft 376 kts 266°
2026-05-07 21:48 36.82075 6.94481 35953 ft 375 kts 265°
2026-05-07 21:49 36.81960 6.87971 35951 ft 375 kts 266°
2026-05-07 21:49 36.81844 6.81458 35967 ft 376 kts 266°
2026-05-07 21:50 36.81724 6.74933 35952 ft 376 kts 266°
2026-05-07 21:50 36.81595 6.68396 35946 ft 377 kts 266°
2026-05-07 21:51 36.81470 6.61860 35956 ft 377 kts 266°
2026-05-07 21:51 36.81339 6.55315 35956 ft 377 kts 266°
2026-05-07 21:52 36.81207 6.48819 35930 ft 377 kts 266°
2026-05-07 21:52 36.81074 6.42280 35936 ft 378 kts 267°
2026-05-07 21:53 36.80931 6.35715 35941 ft 379 kts 267°
2026-05-07 21:53 36.80783 6.29144 35944 ft 379 kts 267°
2026-05-07 21:54 36.80631 6.22566 35947 ft 379 kts 267°
2026-05-07 21:54 36.80475 6.15985 35948 ft 379 kts 267°
2026-05-07 21:55 36.80311 6.09407 35941 ft 379 kts 267°
2026-05-07 21:55 36.80152 6.02821 35957 ft 379 kts 268°
2026-05-07 21:56 36.79989 5.96255 35959 ft 378 kts 268°
2026-05-07 21:56 36.79820 5.89704 35958 ft 378 kts 268°
2026-05-07 21:57 36.79331 5.83181 35958 ft 377 kts 263°
2026-05-07 21:57 36.78678 5.76681 35956 ft 378 kts 263°
2026-05-07 21:58 36.78023 5.70218 35957 ft 377 kts 263°
2026-05-07 21:58 36.77366 5.63681 35961 ft 377 kts 264°
2026-05-07 21:59 36.76717 5.57235 35984 ft 377 kts 263°
2026-05-07 21:59 36.76055 5.50747 35983 ft 377 kts 263°
2026-05-07 22:00 36.75381 5.44246 35973 ft 377 kts 263°
2026-05-07 22:00 36.74705 5.37763 35971 ft 377 kts 263°
2026-05-07 22:01 36.74033 5.31263 35980 ft 377 kts 264°
2026-05-07 22:01 36.73353 5.24782 35973 ft 377 kts 264°
2026-05-07 22:02 36.72675 5.18315 35963 ft 376 kts 264°
2026-05-07 22:02 36.71996 5.11863 35962 ft 375 kts 264°
2026-05-07 22:03 36.71366 5.05408 35954 ft 374 kts 266°
2026-05-07 22:03 36.71102 4.98940 35948 ft 374 kts 269°
2026-05-07 22:04 36.70946 4.92459 35972 ft 373 kts 269°
2026-05-07 22:04 36.70741 4.86013 35981 ft 372 kts 269°
2026-05-07 22:05 36.70487 4.79574 35986 ft 371 kts 268°
2026-05-07 22:05 36.70224 4.73162 35992 ft 370 kts 268°
2026-05-07 22:06 36.69968 4.66790 36008 ft 370 kts 268°
2026-05-07 22:06 36.69713 4.60386 36004 ft 370 kts 268°
2026-05-07 22:07 36.69448 4.53978 36009 ft 370 kts 268°
2026-05-07 22:07 36.69181 4.47587 36011 ft 369 kts 268°
2026-05-07 22:08 36.68954 4.42277 36012 ft 369 kts 268°
2026-05-07 22:08 36.68679 4.35900 36013 ft 368 kts 268°
2026-05-07 22:09 36.68402 4.29544 36008 ft 367 kts 268°
2026-05-07 22:09 36.68126 4.23186 36007 ft 367 kts 268°
2026-05-07 22:10 36.67845 4.16838 36006 ft 367 kts 268°
2026-05-07 22:10 36.67561 4.10487 35979 ft 367 kts 268°
2026-05-07 22:11 36.67268 4.04144 35983 ft 367 kts 268°
2026-05-07 22:11 36.66977 3.97792 35983 ft 367 kts 268°
2026-05-07 22:12 36.66681 3.91435 35985 ft 367 kts 268°
2026-05-07 22:12 36.66386 3.85079 35987 ft 368 kts 268°
2026-05-07 22:13 36.66078 3.78703 35987 ft 369 kts 268°
2026-05-07 22:13 36.65770 3.72326 35992 ft 369 kts 268°
2026-05-07 22:14 36.65458 3.65953 35994 ft 368 kts 268°
2026-05-07 22:14 36.65181 3.59609 35996 ft 368 kts 272°
2026-05-07 22:15 36.65770 3.53261 35996 ft 368 kts 277°
2026-05-07 22:15 36.66443 3.46982 35997 ft 368 kts 277°
2026-05-07 22:16 36.67104 3.40660 35997 ft 368 kts 277°
2026-05-07 22:16 36.67766 3.34351 35995 ft 367 kts 277°
2026-05-07 22:17 36.68427 3.28036 35996 ft 367 kts 277°
2026-05-07 22:17 36.69007 3.21716 35996 ft 367 kts 271°
2026-05-07 22:18 36.68316 3.12218 35994 ft 368 kts 265°
2026-05-07 22:19 36.67782 3.05863 35995 ft 369 kts 266°
2026-05-07 22:19 36.67249 2.99506 35987 ft 369 kts 265°
2026-05-07 22:20 36.66708 2.93142 35988 ft 370 kts 265°
2026-05-07 22:20 36.66160 2.86775 35987 ft 370 kts 265°
2026-05-07 22:21 36.65608 2.80402 35988 ft 370 kts 265°
2026-05-07 22:21 36.65051 2.74045 35987 ft 370 kts 265°
2026-05-07 22:22 36.64488 2.67671 35986 ft 370 kts 265°
2026-05-07 22:22 36.63932 2.61347 35991 ft 370 kts 265°
2026-05-07 22:23 36.63370 2.54978 35989 ft 370 kts 265°
2026-05-07 22:23 36.62804 2.48610 35988 ft 370 kts 265°
2026-05-07 22:24 36.62232 2.42247 35998 ft 370 kts 265°
2026-05-07 22:24 36.61653 2.35886 36002 ft 370 kts 265°
2026-05-07 22:25 36.61077 2.29520 36001 ft 370 kts 265°
2026-05-07 22:25 36.60496 2.23153 35998 ft 370 kts 265°
2026-05-07 22:26 36.59341 2.16915 35997 ft 375 kts 251°
2026-05-07 22:26 36.57316 2.10941 35996 ft 375 kts 251°
2026-05-07 22:27 36.55294 2.04957 35995 ft 375 kts 251°
2026-05-07 22:27 36.53272 1.98979 35996 ft 375 kts 251°
2026-05-07 22:28 36.51246 1.93006 35998 ft 375 kts 251°
2026-05-07 22:28 36.49213 1.87038 35989 ft 375 kts 251°
2026-05-07 22:29 36.47169 1.81045 35644 ft 377 kts 251°
2026-05-07 22:29 36.46148 1.78047 35391 ft 376 kts 251°
2026-05-07 22:29 36.45128 1.75068 35152 ft 375 kts 251°
2026-05-07 22:29 36.44108 1.72091 34915 ft 373 kts 251°
2026-05-07 22:30 36.43096 1.69135 34675 ft 371 kts 251°
2026-05-07 22:30 36.42089 1.66194 34436 ft 369 kts 251°
2026-05-07 22:30 36.41099 1.63304 34204 ft 368 kts 251°
2026-05-07 22:30 36.40103 1.60391 33960 ft 366 kts 252°
2026-05-07 22:31 36.39095 1.57448 33689 ft 365 kts 251°
2026-05-07 22:31 36.38116 1.54600 33424 ft 363 kts 251°
2026-05-07 22:31 36.37126 1.51722 33149 ft 361 kts 251°
2026-05-07 22:31 36.36142 1.48863 32888 ft 359 kts 251°
2026-05-07 22:32 36.35171 1.46007 32633 ft 358 kts 251°
2026-05-07 22:32 36.34218 1.43164 32382 ft 356 kts 251°
2026-05-07 22:32 36.33273 1.40326 32121 ft 355 kts 251°
2026-05-07 22:32 36.32334 1.37509 31869 ft 353 kts 251°
2026-05-07 22:33 36.31395 1.34698 31618 ft 352 kts 251°
2026-05-07 22:33 36.30455 1.31898 31369 ft 351 kts 251°
2026-05-07 22:33 36.29519 1.29121 31123 ft 349 kts 251°
2026-05-07 22:33 36.28583 1.26350 30879 ft 348 kts 251°
2026-05-07 22:34 36.27650 1.23588 30641 ft 347 kts 251°
2026-05-07 22:34 36.26723 1.20850 30334 ft 342 kts 251°
2026-05-07 22:34 36.25808 1.18149 29873 ft 339 kts 251°
2026-05-07 22:34 36.24900 1.15465 29409 ft 335 kts 251°
2026-05-07 22:35 36.24003 1.12811 28973 ft 332 kts 250°
2026-05-07 22:35 36.23116 1.10189 28579 ft 328 kts 250°
2026-05-07 22:35 36.22239 1.07602 28178 ft 324 kts 250°
2026-05-07 22:35 36.21372 1.05047 27767 ft 320 kts 250°
2026-05-07 22:36 36.20513 1.02515 27365 ft 317 kts 250°
2026-05-07 22:36 36.19664 1.00012 26960 ft 314 kts 250°
2026-05-07 22:36 36.18822 0.97538 26554 ft 311 kts 250°
2026-05-07 22:36 36.17981 0.95075 26149 ft 308 kts 250°
2026-05-07 22:37 36.17151 0.92644 25735 ft 306 kts 250°
2026-05-07 22:37 36.16329 0.90229 25319 ft 304 kts 250°
2026-05-07 22:37 36.15508 0.87825 24905 ft 303 kts 249°
2026-05-07 22:37 36.14689 0.85425 24476 ft 302 kts 249°
2026-05-07 22:38 36.13872 0.83036 24050 ft 301 kts 249°
2026-05-07 22:38 36.13059 0.80660 23622 ft 300 kts 249°
2026-05-07 22:38 36.12247 0.78284 23137 ft 300 kts 249°
2026-05-07 22:38 36.11438 0.75918 22717 ft 298 kts 249°
2026-05-07 22:39 36.10633 0.73565 22286 ft 296 kts 249°
2026-05-07 22:39 36.09839 0.71255 21888 ft 294 kts 249°
2026-05-07 22:39 36.09043 0.68938 21483 ft 292 kts 249°
2026-05-07 22:39 36.08248 0.66624 21081 ft 291 kts 249°
2026-05-07 22:40 36.07460 0.64330 20687 ft 290 kts 249°
2026-05-07 22:40 36.06671 0.62037 20290 ft 289 kts 249°
2026-05-07 22:40 36.05887 0.59758 19896 ft 288 kts 250°
2026-05-07 22:40 36.05101 0.57476 19506 ft 288 kts 249°
2026-05-07 22:41 36.04319 0.55212 19117 ft 287 kts 250°
2026-05-07 22:41 36.03534 0.52941 18746 ft 287 kts 250°
2026-05-07 22:41 36.02750 0.50671 18349 ft 287 kts 250°
2026-05-07 22:41 36.01978 0.48434 17929 ft 286 kts 250°
2026-05-07 22:42 36.01196 0.46175 17547 ft 285 kts 250°
2026-05-07 22:42 36.00420 0.43933 17169 ft 283 kts 250°
2026-05-07 22:42 35.99645 0.41698 16803 ft 282 kts 249°
2026-05-07 22:42 35.98872 0.39474 16438 ft 281 kts 249°
2026-05-07 22:43 35.98104 0.37262 16068 ft 281 kts 249°
2026-05-07 22:43 35.97335 0.35050 15714 ft 280 kts 249°
2026-05-07 22:43 35.96568 0.32844 15363 ft 279 kts 249°
2026-05-07 22:43 35.95804 0.30644 15014 ft 278 kts 249°
2026-05-07 22:44 35.95041 0.28452 14658 ft 278 kts 248°
2026-05-07 22:44 35.94276 0.26262 14300 ft 278 kts 248°
2026-05-07 22:44 35.93511 0.24075 13946 ft 277 kts 248°
2026-05-07 22:44 35.92747 0.21887 13562 ft 277 kts 248°
2026-05-07 22:45 35.91988 0.19712 13197 ft 275 kts 248°
2026-05-07 22:45 35.91234 0.17555 12840 ft 273 kts 248°
2026-05-07 22:45 35.90486 0.15411 12483 ft 271 kts 248°
2026-05-07 22:45 35.89741 0.13278 12141 ft 270 kts 248°
2026-05-07 22:46 35.88978 0.11171 11770 ft 269 kts 247°
2026-05-07 22:46 35.88201 0.09081 11411 ft 268 kts 247°
2026-05-07 22:46 35.87418 0.06998 11056 ft 267 kts 247°
2026-05-07 22:46 35.86639 0.04930 10692 ft 266 kts 247°
2026-05-07 22:47 35.85861 0.02856 10329 ft 266 kts 247°
2026-05-07 22:47 35.85089 0.00782 9959 ft 266 kts 247°
2026-05-07 22:47 35.84329 -0.01261 9569 ft 265 kts 247°
2026-05-07 22:47 35.83562 -0.03316 9185 ft 263 kts 247°
2026-05-07 22:48 35.82798 -0.05359 8802 ft 261 kts 247°
2026-05-07 22:48 35.82038 -0.07388 8422 ft 260 kts 247°
2026-05-07 22:48 35.81286 -0.09399 8040 ft 258 kts 247°
2026-05-07 22:48 35.80535 -0.11403 7652 ft 257 kts 247°
2026-05-07 22:49 35.79785 -0.13403 7261 ft 256 kts 247°
2026-05-07 22:49 35.79041 -0.15391 6868 ft 256 kts 247°
2026-05-07 22:49 35.78300 -0.17377 6466 ft 255 kts 247°
2026-05-07 22:49 35.77558 -0.19359 6053 ft 255 kts 247°
2026-05-07 22:50 35.76814 -0.21339 5642 ft 253 kts 247°
2026-05-07 22:50 35.76074 -0.23304 5233 ft 253 kts 246°
2026-05-07 22:50 35.75342 -0.25248 5015 ft 244 kts 246°
2026-05-07 22:50 35.74878 -0.26479 4972 ft 234 kts 247°
2026-05-07 22:51 35.74161 -0.28199 4895 ft 223 kts 239°
2026-05-07 22:51 35.73378 -0.29847 4800 ft 222 kts 245°
2026-05-07 22:51 35.72751 -0.31532 4701 ft 212 kts 249°
2026-05-07 22:51 35.72020 -0.33687 4586 ft 200 kts 249°
2026-05-07 22:52 35.71492 -0.35254 4516 ft 198 kts 249°
2026-05-07 22:52 35.70967 -0.36810 4372 ft 193 kts 249°
2026-05-07 22:52 35.70628 -0.37814 4205 ft 190 kts 249°
2026-05-07 22:52 35.70128 -0.39292 3950 ft 185 kts 249°
2026-05-07 22:53 35.69639 -0.40737 3708 ft 180 kts 249°
2026-05-07 22:53 35.69165 -0.42138 3472 ft 173 kts 249°
2026-05-07 22:53 35.68714 -0.43467 3236 ft 162 kts 249°
2026-05-07 22:53 35.68295 -0.44704 3055 ft 151 kts 249°
2026-05-07 22:54 35.67897 -0.45879 2848 ft 147 kts 248°
2026-05-07 22:54 35.67505 -0.47035 2654 ft 146 kts 248°
2026-05-07 22:54 35.67116 -0.48184 2460 ft 146 kts 248°
2026-05-07 22:54 35.66727 -0.49331 2263 ft 145 kts 248°
2026-05-07 22:55 35.66338 -0.50478 2061 ft 145 kts 248°
2026-05-07 22:55 35.65954 -0.51621 1895 ft 145 kts 249°
2026-05-07 22:55 35.65578 -0.52767 1715 ft 144 kts 249°
2026-05-07 22:55 35.65197 -0.53905 1528 ft 144 kts 246°
2026-05-07 22:56 35.64773 -0.55019 1344 ft 143 kts 246°
2026-05-07 22:56 35.64389 -0.56147 1152 ft 143 kts 249°
2026-05-07 22:56 35.64030 -0.57288 947 ft 143 kts 248°
2026-05-07 22:56 35.63652 -0.58417 714 ft 142 kts 245°
2026-05-07 22:57 35.63258 -0.59527 509 ft 141 kts 248°
2026-05-07 22:57 35.62891 -0.60645 358 ft 141 kts 246°
2026-05-07 22:57 35.62527 -0.61685 304 ft 115 kts 246°
2026-05-07 22:57 35.62294 -0.62402 302 ft 66 kts 248°
2026-05-07 22:58 35.62204 -0.62669 301 ft 20 kts 246°
2026-05-07 22:58 35.62145 -0.62824 303 ft 21 kts 242°
2026-05-07 22:58 35.62059 -0.62971 301 ft 23 kts 210°
2026-05-07 22:58 35.61940 -0.62958 301 ft 18 kts 156°
2026-05-07 22:59 35.61820 -0.62898 303 ft 19 kts 158°
2026-05-07 22:59 35.61693 -0.62833 301 ft 20 kts 157°
2026-05-07 22:59 35.61611 -0.62697 303 ft 21 kts 96°
2026-05-07 22:59 35.61656 -0.62523 302 ft 22 kts 67°
2026-05-07 23:00 35.61719 -0.62343 303 ft 24 kts 67°
2026-05-07 23:00 35.61785 -0.62150 302 ft 25 kts 67°
2026-05-07 23:00 35.61854 -0.61946 303 ft 26 kts 67°
2026-05-07 23:00 35.61926 -0.61738 303 ft 27 kts 67°
2026-05-07 23:01 35.61999 -0.61525 304 ft 22 kts 67°
2026-05-07 23:01 35.62014 -0.61384 306 ft 14 kts 133°
2026-05-07 23:01 35.61982 -0.61290 303 ft 14 kts 72°
2026-05-07 23:01 35.61982 -0.61182 305 ft 14 kts 135°
2026-05-07 23:02 35.61932 -0.61133 303 ft 0 kts 142°